Temp
7 7 7 7 7 8 8 8 9 9 10 10 11 11 11 11 11 11 12 12 12 12 12 12 13 13 12 12 12 12 12 13 13 13 13 12 13 13 11 11 11 10 11 11 11
7 7 7 7 7 7 8 8 8 8 9 10 10 10 11 11 11 11 11 12 12 12 12 12 12 12 12 11 11 11 12 12 13 12 12 13 12 12 12 12 11 11 11 11 11
7 6 6 7 7 7 7 7 8 8 8 9 9 10 10 10 11 11 11 12 12 12 12 12 11 11 11 11 10 11 12 12 12 11 11 12 12 11 11 12 11 11 11 11 11
7 6 6 7 7 7 7 7 8 8 8 8 9 9 9 9 10 10 10 10 11 11 11 11 11 10 11 10 10 10 11 11 12 11 10 11 10 11 10 12 11 10 10 10 11
6 6 6 6 6 6 6 7 7 7 8 8 8 9 9 9 10 9 10 10 10 10 11 11 10 10 10 11 11 10 11 11 11 11 10 10 10 10 10 11 10 10 10 10 10
6 5 6 6 6 6 6 6 7 7 7 8 8 9 9 10 9 9 10 9 10 10 10 10 10 10 9 10 10 10 11 11 11 11 10 10 9 9 10 10 10 10 9 9 10
5 5 5 5 5 5 6 6 6 6 7 7 8 8 9 9 9 9 9 9 9 10 9 9 9 9 9 9 9 10 10 10 10 11 10 9 8 10 10 9 10 9 9 9 9
4 5 4 5 4 4 5 5 5 5 6 6 7 8 9 9 9 9 9 9 10 9 10 9 9 9 9 8 8 9 9 8 10 10 9 8 8 9 9 8 9 9 9 10 10
4 4 4 4 4 4 4 4 4 4 5 6 6 7 9 8 8 8 9 9 9 9 9 9 9 9 8 7 7 8 8 8 8 8 8 7 7 8 9 8 8 9 10 10 10
4 3 4 3 3 3 4 3 4 4 4 5 5 6 7 7 7 7 8 8 7 8 8 9 9 8 6 7 7 10 7 7 7 7 8 7 7 7 8 8 8 9 9 9 10
3 3 3 2 2 3 3 2 3 3 3 4 5 5 6 5 6 6 5 5 6 6 7 7 7 8 10 10 9 7 6 6 5 6 6 7 7 7 7 8 8 9 9 9 10
1 1 2 1 1 1 2 1 2 2 3 4 4 5 6 4 5 5 5 4 5 5 6 5 6 7 7 7 6 6 5 5 6 6 5 5 6 7 7 8 9 9 9 9 9
1 0 0 1 0 1 1 1 1 1 1 4 4 5 6 6 6 8 5 4 3 3 4 4 5 5 5 5 5 5 5 5 5 5 4 5 6 7 8 8 8 9 10 9 9
0 -0 -0 0 -0 -0 -0 0 0 -0 -0 2 4 5 6 7 7 7 6 5 2 3 2 2 3 3 4 4 4 4 5 5 4 3 3 4 3 5 6 7 8 9 9 9 9
-0 0 -0 -0 -0 -0 -0 -0 -0 -1 -1 3 3 4 5 5 6 5 5 6 5 2 1 2 3 3 3 4 4 4 4 4 3 3 3 3 3 5 7 8 8 8 8 8 8
-0 -0 -0 -1 -1 -0 -1 -1 -1 -1 -1 3 2 4 4 5 4 4 4 5 4 1 0 1 2 2 2 3 3 3 3 2 2 2 2 3 4 6 6 6 7 7 7 7 8
-2 -1 -1 -1 -0 -0 -1 -2 -2 -2 1 2 2 3 3 4 4 3 4 4 4 3 1 1 1 1 1 2 3 2 1 1 1 2 2 5 4 5 5 6 6 6 6 7 7
-1 -1 -1 -0 -1 -1 -1 -2 -2 0 1 1 0 1 1 2 3 3 2 3 3 2 2 2 3 4 4 2 2 2 2 2 2 1 1 4 4 6 5 6 5 5 5 6 6
-1 -1 -1 -1 -1 -1 -1 -2 -2 -0 1 1 0 -1 -0 1 1 2 2 3 3 3 2 2 2 4 4 4 2 2 2 2 2 2 1 3 3 4 4 4 4 4 4 4 5
-2 -2 -1 -2 -1 -1 -2 -2 -1 -1 -1 -1 -0 -0 0 1 1 1 2 2 2 3 2 2 2 3 3 3 2 1 2 1 1 1 1 2 2 4 3 3 2 3 3 3 3
-2 -3 -2 -2 -1 -1 -2 -2 -2 -2 -2 -2 -2 -1 -0 -0 0 1 1 2 1 2 2 1 1 2 2 3 3 2 0 1 1 0 1 1 2 3 4 3 3 2 2 2 2
-3 -2 -2 -2 -2 -2 -2 -2 -2 -2 -2 -2 -3 -2 -2 -1 -1 -0 0 1 1 1 1 1 1 1 1 2 2 3 3 1 1 0 -0 0 2 2 3 2 1 1 1 -0 -0
-3 -3 -3 -3 -3 -3 -3 -4 -3 -3 -3 -3 -3 -2 -3 -3 -2 -2 -1 -0 -0 0 -0 -0 -1 -1 -0 1 2 1 2 1 1 1 -0 -1 0 1 2 1 -0 -0 -0 1 1
-5 -4 -5 -4 -3 -3 -3 -4 -4 -4 -3 -3 -3 -3 -3 -3 -3 -3 -2 -1 -1 -1 -1 -2 -2 -1 0 0 -0 1 1 1 1 -0 -0 -0 1 1 1 1 -0 0 -0 1 1
-5 -5 -5 -5 -5 -5 -5 -5 -5 -5 -5 -5 -4 -4 -4 -5 -4 -4 -4 -3 -2 -2 -2 -3 -3 -3 -2 -3 -3 -3 -1 0 0 -0 -0 -1 -0 1 1 0 -1 -0 0 -0 -1
-7 -7 -6 -6 -6 -6 -6 -6 -6 -6 -6 -5 -6 -5 -5 -5 -5 -4 -4 -4 -4 -4 -4 -3 -3 -3 -3 -2 -3 -4 -4 -3 -2 -2 -3 -3 -1 -1 -0 -0 0 1 1 -0 -1
-7 -7 -7 -7 -6 -6 -5 -5 -6 -6 -7 -6 -6 -6 -6 -6 -5 -5 -5 -5 -5 -5 -5 -5 -4 -4 -4 -3 -4 -4 -2 -2 -1 -3 -3 -4 -1 0 -0 0 -0 1 -0 -0 -0
Height
3123 3125 3127 3130 3131 3132 3134 3135 3136 3136 3137 3139 3140 3140 3141 3142 3143 3142 3142 3144 3144 3143 3143 3143 3142 3142 3141 3141 3142 3143 3144 3141 3142 3141 3142 3141 3140 3139 3138 3137 3135 3137 3138 3138 3138
3118 3120 3122 3125 3127 3128 3129 3131 3132 3132 3132 3133 3134 3136 3136 3138 3139 3139 3139 3139 3139 3139 3139 3139 3139 3140 3139 3138 3138 3140 3139 3139 3139 3136 3135 3137 3136 3135 3135 3134 3133 3133 3135 3135 3135
3112 3115 3116 3119 3121 3123 3124 3125 3127 3127 3128 3128 3130 3131 3132 3133 3134 3134 3135 3134 3134 3134 3134 3134 3136 3137 3137 3136 3135 3134 3134 3135 3135 3133 3129 3129 3131 3130 3130 3127 3131 3129 3131 3131 3131
3106 3108 3111 3113 3116 3117 3118 3120 3121 3122 3123 3124 3125 3127 3127 3129 3133 3129 3131 3131 3131 3131 3131 3130 3131 3132 3133 3132 3130 3130 3130 3130 3131 3130 3125 3123 3122 3124 3124 3123 3124 3123 3124 3125 3127
3099 3102 3104 3107 3109 3111 3113 3114 3116 3116 3118 3119 3119 3121 3123 3123 3129 3124 3126 3126 3127 3128 3127 3127 3125 3126 3127 3128 3127 3126 3127 3125 3125 3125 3122 3119 3118 3115 3115 3118 3119 3118 3118 3119 3120
3092 3095 3098 3100 3102 3105 3106 3109 3110 3111 3111 3112 3113 3114 3116 3117 3121 3118 3121 3121 3122 3122 3123 3123 3121 3121 3120 3122 3121 3121 3118 3120 3120 3120 3117 3113 3111 3109 3110 3111 3110 3110 3111 3112 3113
3085 3087 3091 3094 3096 3098 3100 3102 3102 3103 3104 3105 3106 3107 3108 3117 3114 3114 3114 3118 3117 3117 3119 3119 3117 3116 3114 3118 3116 3115 3111 3112 3116 3116 3112 3108 3099 3103 3104 3103 3101 3101 3102 3103 3106
3077 3081 3083 3087 3090 3092 3094 3095 3095 3096 3097 3098 3099 3099 3097 3107 3108 3109 3108 3112 3112 3113 3114 3114 3110 3110 3109 3110 3113 3110 3107 3100 3106 3111 3107 3102 3090 3098 3097 3095 3095 3097 3096 3095 3098
3069 3072 3077 3079 3083 3084 3087 3088 3090 3088 3089 3091 3092 3093 3091 3096 3099 3102 3103 3104 3106 3108 3108 3109 3105 3103 3102 3104 3106 3105 3098 3095 3097 3103 3101 3095 3087 3092 3092 3090 3089 3090 3089 3089 3092
3061 3064 3068 3073 3076 3078 3078 3081 3082 3082 3083 3083 3085 3089 3087 3091 3092 3094 3095 3096 3096 3097 3100 3101 3099 3091 3092 3099 3092 3092 3093 3091 3092 3096 3095 3088 3081 3084 3087 3085 3084 3085 3083 3084 3086
3052 3056 3061 3064 3067 3070 3074 3074 3076 3077 3075 3079 3076 3077 3078 3081 3083 3083 3086 3087 3086 3086 3091 3093 3089 3078 3080 3086 3091 3087 3086 3084 3084 3090 3085 3081 3073 3075 3078 3079 3079 3079 3077 3079 3081
3044 3048 3053 3056 3060 3064 3065 3066 3069 3071 3065 3066 3067 3063 3073 3073 3064 3075 3077 3078 3077 3077 3080 3081 3068 3078 3083 3083 3083 3083 3080 3077 3078 3084 3082 3074 3064 3066 3070 3072 3074 3073 3073 3074 3076
3035 3039 3044 3049 3052 3054 3057 3060 3062 3063 3057 3048 3059 3056 3058 3060 3053 3064 3066 3065 3066 3069 3072 3069 3066 3073 3074 3076 3078 3075 3076 3076 3076 3077 3076 3071 3055 3057 3061 3063 3066 3067 3067 3068 3070
3028 3034 3038 3044 3047 3048 3050 3055 3056 3056 3054 3041 3046 3042 3045 3047 3049 3051 3053 3054 3055 3055 3063 3060 3062 3065 3066 3066 3075 3067 3072 3075 3074 3074 3072 3074 3054 3049 3053 3056 3058 3059 3060 3062 3064
3020 3026 3030 3035 3037 3040 3047 3048 3050 3053 3053 3039 3035 3035 3038 3043 3042 3046 3048 3046 3045 3049 3055 3048 3052 3055 3055 3058 3065 3063 3068 3071 3072 3070 3066 3065 3068 3041 3043 3046 3048 3051 3053 3056 3058
3013 3018 3022 3026 3029 3034 3039 3041 3045 3050 3038 3031 3030 3031 3034 3036 3038 3041 3044 3044 3044 3045 3044 3042 3049 3049 3051 3056 3057 3061 3063 3066 3067 3068 3059 3057 3063 3028 3040 3039 3042 3044 3046 3049 3050
3005 3011 3016 3020 3024 3027 3029 3033 3039 3033 3028 3027 3025 3029 3032 3032 3034 3036 3039 3040 3041 3041 3039 3041 3038 3041 3046 3050 3054 3055 3058 3064 3064 3063 3048 3046 3048 3030 3035 3037 3039 3041 3041 3042 3043
3000 3005 3008 3016 3016 3020 3022 3025 3023 3019 3020 3020 3023 3025 3029 3031 3032 3032 3032 3034 3034 3037 3036 3035 3032 3032 3033 3037 3048 3049 3051 3053 3053 3052 3044 3043 3033 3028 3027 3029 3032 3034 3036 3037 3038
2996 3000 2997 3004 3006 3012 3015 3008 3009 3014 3018 3018 3019 3021 3023 3025 3030 3031 3028 3028 3030 3033 3035 3031 3026 3027 3028 3032 3037 3041 3043 3048 3050 3047 3046 3036 3026 3024 3023 3027 3028 3030 3030 3034 3034
2985 2989 2993 2997 3002 3002 3000 2996 3002 3009 3010 3014 3015 3017 3014 3019 3024 3027 3025 3024 3024 3024 3028 3029 3027 3024 3026 3027 3028 3029 3038 3043 3041 3041 3037 3027 3024 3021 3018 3022 3026 3028 3028 3031 3031
2976 2981 2983 2991 2992 2989 2981 2992 2994 2999 3004 3010 3008 3011 3011 3015 3018 3018 3018 3019 3019 3020 3023 3023 3026 3020 3020 3019 3020 3024 3026 3030 3030 3028 3024 3025 3017 3013 3016 3019 3023 3026 3027 3028 3029
2965 2970 2974 2983 2982 2977 2978 2981 2985 2988 2996 3000 3000 3003 3006 3009 3011 3012 3012 3013 3013 3016 3017 3017 3018 3014 3012 3016 3015 3015 3014 3018 3018 3020 3018 3018 3013 3011 3013 3016 3019 3022 3024 3026 3027
2955 2962 2965 2971 2969 2966 2968 2974 2976 2982 2986 2989 2991 2996 2999 3002 3006 3003 3005 3007 3009 3011 3010 3011 3006 3010 3006 3008 3008 3008 3009 3010 3011 3012 3009 3013 3009 3009 3010 3012 3015 3016 3020 3023 3022
2950 2957 2957 2955 2957 2963 2963 2970 2973 2975 2978 2980 2984 2986 2989 2990 2993 2992 2996 2999 3002 3003 3002 3003 3000 2999 2996 2997 2998 3001 3002 3004 3005 3004 3000 3002 3004 3005 3006 3009 3010 3012 3014 3017 3018
2941 2945 2947 2950 2951 2959 2962 2963 2967 2970 2974 2978 2976 2976 2981 2982 2984 2985 2987 2989 2991 2995 2994 2996 2993 2991 2989 2991 2992 2992 2992 2992 2994 2996 2995 2994 2996 2996 3000 3003 3005 3006 3005 3006 3009
2938 2941 2944 2947 2953 2958 2955 2958 2963 2965 2969 2973 2974 2973 2976 2975 2978 2980 2980 2982 2981 2982 2986 2986 2984 2985 2982 2987 2986 2985 2987 2985 2982 2986 2987 2988 2987 2994 2997 2997 2997 2997 2997 2997 2997
2932 2939 2942 2944 2949 2951 2950 2952 2956 2962 2965 2964 2968 2971 2973 2971 2971 2972 2975 2976 2975 2975 2978 2980 2979 2978 2976 2980 2979 2976 2973 2978 2979 2977 2979 2978 2977 2985 2986 2986 2990 2987 2987 2988 2991
Wind_Speed
30 29 29 30 29 28 27 27 27 25 25 24 24 22 22 20 17 18 18 18 20 19 18 18 19 17 15 13 13 13 13 18 18 21 21 22 22 23 19 19 16 14 9 8 10
33 32 30 31 31 30 30 29 29 29 28 27 26 24 22 22 20 21 20 19 20 21 20 18 19 18 16 13 15 14 18 18 18 22 26 27 29 25 26 26 22 19 19 11 12
35 34 33 33 33 33 31 31 31 32 31 29 28 26 24 23 22 24 22 20 18 19 20 19 18 16 17 17 17 19 22 21 20 23 28 30 32 30 28 32 27 25 23 21 17
37 36 37 35 36 34 33 33 33 32 33 32 30 29 27 23 17 16 16 17 18 17 16 14 16 18 18 18 21 22 24 25 24 24 29 33 33 35 34 33 30 27 26 26 23
39 39 38 37 36 36 35 34 34 33 34 34 32 32 30 27 19 26 25 24 23 24 24 25 23 23 24 24 25 27 27 29 29 28 30 35 36 37 38 33 31 30 29 27 25
41 40 40 39 38 37 35 35 34 34 34 35 34 33 33 32 23 25 23 22 21 21 23 24 26 25 26 25 27 30 33 32 31 32 35 38 38 37 37 31 32 35 34 33 30
44 42 41 40 39 39 37 36 35 35 36 36 35 34 35 26 24 23 24 21 23 23 22 25 26 27 28 26 28 31 36 37 31 32 40 38 38 35 29 25 28 29 32 36 34
45 45 42 42 39 39 39 38 37 37 37 36 34 33 35 26 26 23 26 23 24 26 24 25 30 29 32 31 29 32 38 45 36 32 36 34 41 33 21 18 25 23 27 33 31
46 44 45 40 41 39 40 40 40 38 37 37 36 36 38 30 23 23 28 28 29 27 23 26 34 36 36 31 32 35 42 41 40 24 28 32 30 25 17 19 18 20 21 23 21
47 44 44 41 40 41 39 37 40 40 37 38 39 37 35 26 21 22 35 38 36 34 29 28 32 42 40 34 38 41 36 34 29 27 29 36 40 32 23 24 21 18 16 19 23
46 44 43 39 38 39 37 37 40 41 42 38 40 41 40 43 43 41 37 33 34 36 34 32 36 49 50 43 38 40 37 38 35 29 35 37 41 36 26 30 25 20 18 16 22
43 41 40 40 36 36 41 42 40 37 43 47 46 52 45 42 48 37 37 35 35 38 34 36 50 45 35 34 36 35 37 41 40 32 29 35 41 37 32 29 29 28 26 21 18
31 25 18 23 22 29 30 27 24 25 36 54 48 50 38 33 44 36 39 45 47 42 40 45 45 23 28 32 36 41 40 39 37 34 27 32 44 35 32 29 31 32 32 30 26
32 31 28 20 24 27 25 23 25 16 20 39 29 29 28 23 25 26 24 35 50 53 49 44 48 47 37 35 28 41 36 32 26 20 15 18 14 26 21 24 27 29 32 34 33
42 44 39 32 38 39 29 20 14 15 5 8 13 16 12 10 12 13 13 19 33 42 37 34 37 25 37 43 37 40 34 30 25 23 25 21 15 21 4 11 19 26 24 25 27
34 33 31 31 35 31 28 21 14 11 11 8 10 11 14 13 16 18 13 14 15 35 38 45 41 27 30 27 25 31 36 28 27 18 13 21 18 39 28 27 27 25 23 24 24
22 20 29 34 30 32 27 21 16 10 13 11 14 14 12 15 15 18 18 18 15 11 29 36 41 39 37 26 21 23 18 4 4 6 10 10 21 39 13 20 20 19 25 25 22
24 26 27 36 35 33 31 33 14 24 29 11 11 8 18 18 21 19 21 24 24 22 17 9 10 26 36 43 34 27 27 12 6 4 3 12 14 18 21 22 23 22 22 23 25
31 31 41 30 39 33 37 36 24 34 31 40 23 21 21 19 19 13 19 30 30 26 19 9 16 16 17 12 34 43 38 34 20 15 5 9 14 19 22 19 17 17 15 15 16
40 42 41 36 46 40 43 46 38 44 24 29 30 13 15 23 23 27 26 14 15 25 28 20 17 22 22 17 21 36 26 14 21 7 8 6 16 20 19 22 18 13 11 10 10
44 44 45 41 52 52 42 44 47 48 38 26 25 26 23 21 19 24 20 23 19 15 18 31 26 25 11 16 26 26 40 22 19 12 6 3 9 13 17 20 18 13 10 11 6
46 46 43 51 47 51 54 55 43 44 46 41 34 36 32 32 26 26 29 29 22 21 23 27 15 34 40 19 16 22 32 43 19 11 16 10 16 9 6 13 17 13 9 6 8
38 46 51 53 52 43 39 36 47 43 40 31 38 42 40 42 32 35 35 33 31 28 18 21 20 18 16 24 37 25 30 36 42 27 22 7 6 11 10 17 18 20 15 16 17
43 39 24 32 51 47 41 33 26 26 26 38 29 34 34 36 42 38 37 33 30 36 36 24 24 19 19 9 16 24 36 35 33 25 19 22 21 15 16 18 15 14 17 20 19
23 24 33 19 30 33 30 19 19 23 27 24 27 28 24 22 28 33 37 45 41 33 40 24 20 25 24 17 15 15 21 32 37 33 28 27 30 28 20 15 15 26 28 28 28
18 15 16 22 16 18 19 23 25 22 22 25 25 25 22 21 26 12 21 26 29 27 36 42 33 29 31 35 30 24 21 24 31 29 23 20 29 26 22 28 31 29 28 30 28
25 22 16 22 23 22 20 20 19 22 21 19 17 17 21 23 28 31 28 24 23 23 26 31 31 23 13 24 27 19 41 38 33 28 33 30 35 27 32 33 25 25 22 22 24
Wind_Direction
246 248 251 257 256 259 262 263 265 265 268 271 274 277 280 281 282 278 276 284 287 288 285 285 281 273 271 272 274 272 266 280 298 302 307 310 306 301 273 280 296 311 316 252 259
247 248 252 255 261 262 263 265 268 269 268 269 271 273 275 279 282 280 283 283 283 282 281 278 277 276 273 267 265 263 265 277 294 297 302 307 304 303 292 269 276 296 304 288 266
246 249 249 254 255 261 264 268 270 273 274 272 273 274 275 278 281 281 284 286 282 278 274 271 272 271 267 267 266 266 269 280 283 289 293 298 299 299 292 281 278 284 285 288 279
246 248 252 253 257 258 261 265 268 271 274 275 276 276 276 277 285 285 280 280 284 281 278 275 269 269 261 265 267 265 273 277 276 281 286 291 294 294 293 285 283 283 279 281 279
244 247 249 251 255 258 261 263 266 270 273 275 277 278 277 274 277 278 280 276 274 275 271 270 268 271 271 270 273 274 273 274 282 284 285 291 295 297 288 287 277 278 280 282 280
243 246 248 250 252 255 259 262 265 269 271 273 275 277 278 277 281 275 276 278 274 271 268 268 268 266 269 269 269 274 276 277 279 291 291 293 294 290 291 290 278 272 273 277 279
245 244 247 249 252 254 255 258 261 263 267 269 273 274 275 285 276 278 279 272 276 274 274 275 272 271 269 270 266 269 275 274 279 290 293 295 294 286 293 284 277 274 274 271 271
243 247 245 249 250 254 257 258 258 261 264 266 267 271 276 279 276 279 283 283 274 271 272 267 267 265 265 266 265 271 275 277 287 297 296 294 292 295 282 266 266 266 281 274 267
244 244 249 247 252 252 256 259 260 258 260 264 267 270 279 285 280 279 287 282 283 281 270 259 262 264 261 261 271 270 268 275 288 292 290 292 292 299 255 259 270 263 280 271 262
243 243 246 248 249 251 251 257 260 260 261 260 267 276 275 280 274 280 285 284 285 280 261 247 249 253 247 250 252 267 267 280 281 287 288 283 281 286 266 269 274 259 278 286 260
241 242 244 245 243 248 251 253 255 259 261 263 265 266 268 276 279 273 271 270 264 261 253 254 246 245 262 267 275 261 271 278 278 290 289 283 283 282 275 254 261 258 267 278 263
236 242 246 248 244 247 252 254 260 263 266 265 265 269 270 274 271 269 270 260 248 248 250 246 248 252 256 260 265 265 269 272 280 286 282 287 279 277 272 261 256 257 259 259 263
208 204 213 215 234 228 231 238 247 253 263 264 266 270 274 264 269 274 262 254 250 245 243 249 252 248 254 258 257 262 262 267 279 290 281 287 284 284 279 268 258 256 255 257 260
230 244 236 249 243 252 244 249 255 260 274 271 273 261 267 262 264 265 250 243 241 245 244 256 257 252 252 255 258 259 259 267 276 281 285 297 293 279 261 266 263 259 259 259 261
241 235 229 238 246 242 246 241 234 236 270 258 228 238 229 218 236 237 238 247 239 236 230 238 246 243 250 257 253 253 265 270 273 276 286 275 268 287 231 256 264 260 261 273 274
246 250 244 226 238 231 233 220 209 191 238 242 232 232 234 232 242 246 251 251 252 237 231 240 246 254 254 259 259 256 257 263 267 264 264 240 225 278 268 268 268 270 268 277 279
256 215 213 231 231 225 217 210 195 203 235 241 235 229 228 232 235 250 256 258 249 227 242 248 243 245 244 252 242 228 224 243 239 200 245 229 219 249 252 259 263 256 273 275 281
218 216 222 233 230 227 219 208 208 232 214 193 198 209 240 238 247 246 250 255 252 244 246 243 266 246 249 241 232 226 214 197 227 217 278 197 236 247 250 255 250 250 256 262 270
217 217 224 235 226 236 222 204 215 231 237 231 231 257 255 248 238 246 255 258 260 259 236 236 256 239 248 265 233 231 235 237 252 270 306 242 258 256 251 242 237 235 242 257 269
216 217 224 225 230 223 224 221 234 229 229 238 240 248 253 254 242 242 242 268 265 259 255 251 265 272 265 247 231 230 236 214 209 224 234 252 249 250 240 231 222 221 235 254 285
221 222 224 233 230 214 223 230 236 231 234 231 235 240 245 249 239 229 238 247 259 256 245 245 245 254 231 227 234 219 223 222 221 214 223 240 249 245 252 246 235 225 243 266 262
214 217 217 217 221 235 225 222 231 234 236 238 238 243 248 250 247 238 242 242 250 257 240 238 248 250 249 244 238 242 241 215 214 212 223 245 253 275 228 210 215 220 213 207 299
209 219 225 225 215 206 215 224 223 230 231 237 242 251 251 245 250 251 251 252 251 252 246 232 221 245 255 242 244 245 233 224 223 239 221 193 244 235 218 196 208 211 293 317 312
211 213 210 210 215 224 233 228 224 220 221 227 226 230 237 244 249 248 248 251 257 249 241 229 217 218 238 238 218 228 233 234 235 225 232 227 238 232 222 227 248 289 297 291 279
202 209 226 220 217 227 224 242 247 249 248 248 239 225 233 258 273 271 259 252 249 241 243 228 249 236 227 243 248 230 217 218 225 239 231 242 240 246 236 214 260 289 293 269 261
205 207 210 229 233 222 239 243 247 253 251 250 248 250 255 247 244 232 239 249 252 248 246 246 248 267 264 258 264 268 273 242 217 223 230 232 235 224 244 269 273 284 273 269 272
205 215 204 209 215 222 223 234 251 252 252 258 262 259 262 259 254 257 261 240 232 229 245 242 241 246 253 263 273 268 268 269 268 258 255 254 249 258 279 276 272 259 259 258 263